Powrót do katalogu

OPS 4682 DEB

AktywnyPO
NORAD 38428·DEBRIS·🇺🇸 United States

Wystrzelony Apr 3, 1965 z Vandenberg Space Force Base

Loading…

Następne Przeloty (najbliższe 24 godziny)

TLE

Starzejące sięSource: Space-Track

Epoka: Sep 9, 2026, 07:56 UTC

1 38428U 65027EH  26252.33121908  .00000616  00000-0  20856-2 0  9995
2 38428  90.2564  15.2913 0044703 193.6596 166.3319 12.97526559608825

Śledź OPS 4682 DEB w czasie rzeczywistym z AllMySat

Download on the App Store